Regional Weather Roundup
Issued by NWS

Home | Current Version | Previous Version | Text Only | Print | Product List | Glossary Off
Versions: 1 2 3 4 5 6 7 8 9 10 11 12 13 14 15 16 17 18 19 20 21 22 23 24 25 26 27 28 29 30 31 32 33 34 35 36 37 38 39 40 41 42 43 44 45 46 47 48 49 50

000
ASUS45 KSLC 300110
RWRUT

UTAH REGIONAL WEATHER ROUNDUP
NATIONAL WEATHER SERVICE SALT LAKE CITY UT
700 PM MDT SAT APR 29 2017

UTZ001>011-023>025-300200-

NORTHERN UTAH

CITY           SKY/WX    TMP DP  RH WIND       PRES   REMARKS
BRIGHAM CITY   SUNNY     55  23  28 CALM      30.18S
HILL AFB       MOSUNNY   53  22  30 S5        30.17S
LOGAN          MOSUNNY   54  27  35 CALM      30.17S
OGDEN          SUNNY     53  25  33 NW9       30.16F
SALT LAKE CITY PTSUNNY   56  23  27 NW9       30.17S
TOOELE VALLEY  SUNNY     52  30  43 N3        30.20R
WENDOVER       SUNNY     56  25  30 SE6       30.17F
HEBER CITY     MOSUNNY   46  19  34 N18       30.17S
WEST JORDAN    SUNNY     54  36  51 NW12      30.18S

$$

UTZ011>015-024>027-300200-

CENTRAL/NORTHEAST UTAH

CITY           SKY/WX    TMP DP  RH WIND       PRES   REMARKS
PROVO AIRPORT  SUNNY     53  27  36 NW18      30.16R
MOAB/CANYONLAN SUNNY     57  15  19 NE15G22   30.03R
DELTA          SUNNY     54  19  26 N14G20    30.15R
PRICE          PTSUNNY   53  19  26 NW17G24   30.06S
ROOSEVELT      SUNNY     52  18  25 S10       30.12S
VERNAL         SUNNY     48  16  27 N15G22    30.14R

$$

UTZ013>016-019>022-027-300200-

SOUTHERN UTAH

CITY           SKY/WX    TMP DP  RH WIND       PRES   REMARKS
BRYCE CANYON   SUNNY     44  12  27 N18G29    30.14R
CEDAR CITY     SUNNY     50  21  32 N15G25    30.14R
MILFORD        MOSUNNY   56  22  26 N24G31    30.14R
ST GEORGE      PTCLDY    68  18  14 NE23G29   30.05R
HANKSVILLE     PTSUNNY   57  16  19 NE13G18   30.05S
BLANDING       SUNNY     50  17  26 N17       30.10R

$$

REGIONAL REPORTS     COLORADO/ARIZONA

CITY           SKY/WX    TMP DP  RH WIND       PRES   REMARKS
CRAIG, CO      CLOUDY    44  20  38 N18G26    30.09R
GRAND JUNCTION CLOUDY    51  20  29 N16       30.05R
RIFLE, CO      CLOUDY    45  25  45 E12       30.07R
MONTROSE, CO   CLOUDY    48  26  42 NW16G24   30.04R
CORTEZ, CO     CLOUDY    46  22  38 N13       29.99R
COLORADO CITY    N/A     61  18  18 N10       30.11R
PAGE, AZ       CLOUDY    64  17  16 E5        30.00S
GRAND CANYON   PTSUNNY   54  11  18 NE6       30.08S
KINGMAN, AZ    SUNNY     69  16  13 N23G29    30.04S
FLAGSTAFF, AZ  MOSUNNY   50   7  17 NE9       30.08R

$$

REGIONAL REPORTS    NEVADA/IDAHO/WYOMING

CITY           SKY/WX    TMP DP  RH WIND       PRES   REMARKS
LAS VEGAS, NV  SUNNY     77   6   6 N8G22     29.99S
ELY, NY        MOSUNNY   53  16  23 N9        30.18S
ELKO, NV       MOSUNNY   56  20  24 SW8       30.18S
POCATELLO, ID  MOSUNNY   54  26  34 W15       30.17F
BURLEY, ID     MOSUNNY   54  21  27 W9        30.16S
FORT BRIDGER,    N/A     38  23  55 W3        30.23F
EVANSTON, WY   SUNNY     39  20  46 CALM      30.21S
ROCK SPRINGS,  SUNNY     40  16  37 NE9       30.17F WCI  34
KEMMERER, WY     N/A     39  23  52 NW9       30.20S WCI  33

$$



USA.gov is the U.S. government's official web portal to all federal, state and local government web resources and services.